Skip Page Navigation
NASA JPL Caltech
NASA Logo - Jet Propulsion Laboratory + View the NASA Portal
+ Center for Near-Earth Object Studies
JPL Home Earth Solar System Stars & Galaxies Technology
JPL Solar System Dynamics
BODIES ORBITS EPHEMERIDES TOOLS PHYSICAL DATA DISCOVERY FAQ SITE MAP
JPL Small-Body Database Browser
Search: [ help ]  
186524 (2002 VU50)
Classification: Main-belt Asteroid          SPK-ID: 2186524
Ephemeris | Orbit Diagram | Orbital Elements | Mission Design | Physical Parameters | Discovery Circumstances ]

[ show orbit diagram ]
Orbital Elements at Epoch 2459200.5 (2020-Dec-17.0) TDB
Reference: JPL 15 (heliocentric ecliptic J2000)
 Element Value Uncertainty (1-sigma)   Units 
e .2164621483681192 3.7873e-08  
a 2.252658982191617 1.0308e-08 au
q 1.765043579365679 8.6174e-08 au
i 9.616152472081431 5.0254e-06 deg
node 198.4621461579749 2.5737e-05 deg
peri 100.7967514814229 2.9769e-05 deg
M 204.2832558940497 1.5677e-05 deg
tp 2459734.663756455414
(2022-Jun-04.16375646)
5.6158e-05 TDB
period 1234.927903405867
3.38
8.4762e-06
2.321e-08
d
yr
n .2915149937151301 2.0009e-09 deg/d
Q 2.740274385017555 1.2539e-08 au
  Orbit Determination Parameters
   # obs. used (total)      330  
   data-arc span      8337 days (22.83 yr)  
   first obs. used      1998-05-23  
   last obs. used      2021-03-20  
   planetary ephem.      DE441  
   SB-pert. ephem.      SB441-N16  
   condition code      0  
   norm. resid. RMS      .56187  
   source      ORB  
   producer      Otto Matic  
   solution date      2021-May-04 10:14:13  

Additional Information
 Earth MOID = .779209 au 
 Jupiter MOID = 2.54978 au 
 T_jup = 3.577 
[ show covariance matrix ]

Ephemeris | Orbit Diagram | Orbital Elements | Mission Design | Physical Parameters | Discovery Circumstances ]

Physical Parameter Table
Parameter Symbol Value Units Sigma Reference Notes
absolute magnitude H 16.88   n/a MPCxxxxx  

186524 (2002 VU50)          Discovered 2002-Nov-06 by LONEOS at Anderson Mesa
Reference: 20080520/Numbers.arcLast Updated: 2008-05-22

Alternate Designations
 2002 VU50 = 2005 MV12 
Ephemeris | Orbit Diagram | Orbital Elements | Mission Design | Physical Parameters | Discovery Circumstances ]
ABOUT SSD CREDITS/AWARDS PRIVACY/COPYRIGHT GLOSSARY LINKS
FirstGov 2021-Jun-18 03:50 UT
(server date/time)  
NASA Home Page
Site Manager:   Ryan S. Park
Webmaster  Alan B. Chamberlin